TimeAKST,TemperatureF,Dew PointF,Humidity,Sea Level PressureIn,VisibilityMPH,Wind Direction,Wind SpeedMPH,Gust SpeedMPH,PrecipitationIn,Events,Conditions,WindDirDegrees,DateUTC
12:16 AM,-25.6,-9999,N/A,29.58,10.0,Calm,Calm,-,N/A,,Clear,0,2012-12-10 09:16:00
12:36 AM,-27.4,-9999,N/A,29.58,9.0,Calm,Calm,-,N/A,,Clear,0,2012-12-10 09:36:00
12:56 AM,-25.6,-9999,N/A,29.58,10.0,Calm,Calm,-,N/A,,Clear,0,2012-12-10 09:56:00
1:16 AM,-27.4,-9999,N/A,29.58,10.0,Calm,Calm,-,N/A,,Clear,0,2012-12-10 10:16:00
1:36 AM,-25.6,-25.6,100,29.58,10.0,Calm,Calm,-,N/A,,Clear,0,2012-12-10 10:36:00
1:56 AM,-25.6,-9999,N/A,29.58,10.0,Calm,Calm,-,N/A,,Clear,0,2012-12-10 10:56:00
2:16 AM,-22.0,-9999,N/A,29.58,10.0,Calm,Calm,-,N/A,,Clear,0,2012-12-10 11:16:00
2:36 AM,-20.2,-9999,N/A,29.58,10.0,Calm,Calm,-,N/A,,Clear,0,2012-12-10 11:36:00
2:56 AM,-25.6,-9999,N/A,29.58,10.0,Calm,Calm,-,N/A,,Clear,0,2012-12-10 11:56:00
3:16 AM,-27.4,-9999,N/A,29.58,10.0,Calm,Calm,-,N/A,,Clear,0,2012-12-10 12:16:00
3:36 AM,-27.4,-9999,N/A,29.58,7.0,Calm,Calm,-,N/A,,Clear,0,2012-12-10 12:36:00
3:56 AM,-27.4,-9999,N/A,29.58,10.0,Calm,Calm,-,N/A,,Clear,0,2012-12-10 12:56:00
4:16 AM,-23.8,-9999,N/A,29.58,10.0,Calm,Calm,-,N/A,,Clear,0,2012-12-10 13:16:00
4:36 AM,-25.6,-9999,N/A,29.57,8.0,Calm,Calm,-,N/A,,Clear,0,2012-12-10 13:36:00
4:56 AM,-27.4,-9999,N/A,29.58,7.0,Calm,Calm,-,N/A,,Clear,0,2012-12-10 13:56:00
5:16 AM,-25.6,-9999,N/A,29.57,10.0,Calm,Calm,-,N/A,,Clear,0,2012-12-10 14:16:00
5:36 AM,-27.4,-9999,N/A,29.57,10.0,Calm,Calm,-,N/A,,Clear,0,2012-12-10 14:36:00
5:56 AM,-31.0,-9999,N/A,29.57,10.0,Calm,Calm,-,N/A,,Clear,0,2012-12-10 14:56:00
6:16 AM,-29.2,-9999,N/A,29.57,10.0,Calm,Calm,-,N/A,,Clear,0,2012-12-10 15:16:00
6:36 AM,-32.8,-9999,N/A,29.58,9.0,Calm,Calm,-,N/A,,Clear,0,2012-12-10 15:36:00
6:56 AM,-32.8,-9999,N/A,29.58,10.0,Calm,Calm,-,N/A,,Clear,0,2012-12-10 15:56:00
7:16 AM,-34.6,-9999,N/A,29.57,10.0,Calm,Calm,-,N/A,,Clear,0,2012-12-10 16:16:00
7:36 AM,-29.2,-9999,N/A,29.57,10.0,Calm,Calm,-,N/A,,Clear,0,2012-12-10 16:36:00
7:56 AM,-32.8,-9999,N/A,29.57,10.0,Calm,Calm,-,N/A,,Clear,0,2012-12-10 16:56:00
8:16 AM,-34.6,-9999,N/A,29.57,10.0,Calm,Calm,-,N/A,,Clear,0,2012-12-10 17:16:00
8:36 AM,-29.2,-9999,N/A,29.57,10.0,Calm,Calm,-,N/A,,Clear,0,2012-12-10 17:36:00
8:56 AM,-32.8,-9999,N/A,29.57,10.0,Calm,Calm,-,N/A,,Clear,0,2012-12-10 17:56:00
9:16 AM,-32.8,-9999,N/A,29.58,10.0,Calm,Calm,-,N/A,,Clear,0,2012-12-10 18:16:00
9:36 AM,-32.8,-9999,N/A,29.58,10.0,Calm,Calm,-,N/A,,Clear,0,2012-12-10 18:36:00
9:56 AM,-36.4,-9999,N/A,29.58,10.0,Calm,Calm,-,N/A,,Clear,0,2012-12-10 18:56:00
10:16 AM,-34.6,-9999,N/A,29.59,10.0,Calm,Calm,-,N/A,,Clear,0,2012-12-10 19:16:00
10:36 AM,-29.2,-29.2,100,29.58,10.0,Calm,Calm,-,N/A,,Clear,0,2012-12-10 19:36:00
10:56 AM,-29.2,-9999,N/A,29.58,9.0,Calm,Calm,-,N/A,,Clear,0,2012-12-10 19:56:00
11:16 AM,-31.0,-9999,N/A,29.58,10.0,Calm,Calm,-,N/A,,Clear,0,2012-12-10 20:16:00
11:36 AM,-32.8,-9999,N/A,29.58,8.0,Calm,Calm,-,N/A,,Clear,0,2012-12-10 20:36:00
11:56 AM,-31.0,-9999,N/A,29.58,10.0,Calm,Calm,-,N/A,,Clear,0,2012-12-10 20:56:00
12:16 PM,-34.6,-9999,N/A,29.58,10.0,Calm,Calm,-,N/A,,Clear,0,2012-12-10 21:16:00
12:36 PM,-34.6,-9999,N/A,29.58,9.0,Calm,Calm,-,N/A,,Clear,0,2012-12-10 21:36:00
12:56 PM,-32.8,-9999,N/A,29.59,10.0,Calm,Calm,-,N/A,,Clear,0,2012-12-10 21:56:00
1:16 PM,-36.4,-9999,N/A,29.59,9.0,Calm,Calm,-,N/A,,Clear,0,2012-12-10 22:16:00
1:36 PM,-36.4,-9999,N/A,29.59,9.0,Calm,Calm,-,N/A,,Clear,0,2012-12-10 22:36:00
1:56 PM,-32.8,-9999,N/A,29.58,8.0,Calm,Calm,-,N/A,,Clear,0,2012-12-10 22:56:00
2:16 PM,-34.6,-9999,N/A,29.58,10.0,Calm,Calm,-,N/A,,Clear,0,2012-12-10 23:16:00
2:36 PM,-34.6,-9999,N/A,29.57,10.0,Calm,Calm,-,N/A,,Clear,0,2012-12-10 23:36:00
2:56 PM,-34.6,-9999,N/A,29.57,10.0,Calm,Calm,-,N/A,,Clear,0,2012-12-10 23:56:00
3:16 PM,-34.6,-9999,N/A,29.58,10.0,Calm,Calm,-,N/A,,Clear,0,2012-12-11 00:16:00
3:36 PM,-36.4,-9999,N/A,29.57,10.0,Calm,Calm,-,N/A,,Clear,0,2012-12-11 00:36:00
3:56 PM,-34.6,-9999,N/A,29.57,10.0,Calm,Calm,-,N/A,,Clear,0,2012-12-11 00:56:00
4:16 PM,-34.6,-9999,N/A,29.57,10.0,Calm,Calm,-,N/A,,Clear,0,2012-12-11 01:16:00
4:36 PM,-36.4,-9999,N/A,29.58,9.0,Calm,Calm,-,N/A,,Clear,0,2012-12-11 01:36:00
4:56 PM,-38.2,-9999,N/A,29.57,10.0,Calm,Calm,-,N/A,,Clear,0,2012-12-11 01:56:00
5:16 PM,-34.6,-9999,N/A,29.57,7.0,Calm,Calm,-,N/A,,Clear,0,2012-12-11 02:16:00
5:36 PM,-32.8,-9999,N/A,29.57,10.0,Calm,Calm,-,N/A,,Clear,0,2012-12-11 02:36:00
5:56 PM,-34.6,-9999,N/A,29.57,10.0,Calm,Calm,-,N/A,,Clear,0,2012-12-11 02:56:00
6:16 PM,-36.4,-9999,N/A,29.57,10.0,Calm,Calm,-,N/A,,Clear,0,2012-12-11 03:16:00
6:36 PM,-36.4,-9999,N/A,29.57,10.0,Calm,Calm,-,N/A,,Clear,0,2012-12-11 03:36:00
6:56 PM,-38.2,-9999,N/A,29.57,7.0,Calm,Calm,-,N/A,,Clear,0,2012-12-11 03:56:00
7:16 PM,-36.4,-9999,N/A,29.58,9.0,Calm,Calm,-,N/A,,Clear,0,2012-12-11 04:16:00
7:36 PM,-38.2,-9999,N/A,29.58,9.0,Calm,Calm,-,N/A,,Clear,0,2012-12-11 04:36:00
7:56 PM,-38.2,-9999,N/A,29.58,10.0,Calm,Calm,-,N/A,,Clear,0,2012-12-11 04:56:00
8:16 PM,-38.2,-9999,N/A,29.58,10.0,Calm,Calm,-,N/A,,Clear,0,2012-12-11 05:16:00
8:36 PM,-38.2,-9999,N/A,29.58,5.0,Calm,Calm,-,N/A,,Clear,0,2012-12-11 05:36:00
8:56 PM,-36.4,-9999,N/A,29.58,10.0,Calm,Calm,-,N/A,,Clear,0,2012-12-11 05:56:00
9:16 PM,-38.2,-9999,N/A,29.58,10.0,Calm,Calm,-,N/A,,Clear,0,2012-12-11 06:16:00
9:36 PM,-38.2,-9999,N/A,29.58,7.0,Calm,Calm,-,N/A,,Clear,0,2012-12-11 06:36:00
9:56 PM,-34.6,-9999,N/A,29.57,10.0,Calm,Calm,-,N/A,,Clear,0,2012-12-11 06:56:00
10:16 PM,-34.6,-9999,N/A,29.57,10.0,Calm,Calm,-,N/A,,Clear,0,2012-12-11 07:16:00
10:36 PM,-38.2,-9999,N/A,29.57,5.0,Calm,Calm,-,N/A,,Clear,0,2012-12-11 07:36:00
10:56 PM,-38.2,-9999,N/A,29.57,8.0,Calm,Calm,-,N/A,,Clear,0,2012-12-11 07:56:00
11:16 PM,-36.4,-9999,N/A,29.57,5.0,Calm,Calm,-,N/A,,Clear,0,2012-12-11 08:16:00
11:36 PM,-36.4,-9999,N/A,29.57,10.0,Calm,Calm,-,N/A,,Clear,0,2012-12-11 08:36:00
11:56 PM,-36.4,-9999,N/A,29.58,10.0,Calm,Calm,-,N/A,,Clear,0,2012-12-11 08:56:00